When you browse on this site, cookies collect data to enhance your experience and personalize the content and advertising you see.
Visit our Privacy Policy to learn more. By continuing to use the site, you agree to this use of cookies and data.
  • Em Portugal
  • Lista de países
  • Para 7 dias
  • Temperatura da água
  • Mapas de satélite
  • Mapa do tempo
  • Widgets de tempo
  • user-avatar
    Iniciar Sessão

    Previsão horária em Sheki

    Hoje, 26 Abril, Sexta-feira

    Tempo Temperatura Precipitação Vento Pressão Humidade
    00:00 +13°C° 0 mm 2 m/s 750 mmHg 57%
    01:00 +12°C° 0 mm 2 m/s 750 mmHg 58%
    02:00 +10°C° 0 mm 1 m/s 750 mmHg 61%
    03:00 +10°C° 0 mm 1 m/s 750 mmHg 63%
    04:00 +9°C° 0 mm 2 m/s 749 mmHg 65%
    05:00 +9°C° 0 mm 2 m/s 749 mmHg 66%
    06:00 +12°C° 0 mm 2 m/s 749 mmHg 63%
    07:00 +14°C° 0 mm 2 m/s 749 mmHg 60%
    08:00 +16°C° 0 mm 3 m/s 749 mmHg 56%
    09:00 +17°C° 0 mm 3 m/s 749 mmHg 52%
    10:00 +19°C° 0 mm 3 m/s 748 mmHg 48%
    11:00 +20°C° 0 mm 4 m/s 748 mmHg 43%
    12:00 +21°C° 0 mm 4 m/s 748 mmHg 42%
    13:00 +22°C° 0 mm 3 m/s 748 mmHg 41%
    14:00 +22°C° 0 mm 3 m/s 748 mmHg 40%
    15:00 +22°C° 0 mm 3 m/s 747 mmHg 42%
    16:00 +22°C° 0 mm 3 m/s 747 mmHg 44%
    17:00 +22°C° 0 mm 3 m/s 746 mmHg 46%
    18:00 +20°C° 0 mm 3 m/s 746 mmHg 52%
    19:00 +18°C° 0 mm 3 m/s 746 mmHg 59%
    20:00 +16°C° 0 mm 3 m/s 746 mmHg 66%
    21:00 +14°C° 0 mm 3 m/s 746 mmHg 65%
    22:00 +14°C° 0 mm 3 m/s 746 mmHg 65%
    23:00 +13°C° 0 mm 3 m/s 745 mmHg 65%

    Amanhã, 27 Abril, Sábado

    Tempo Temperatura Precipitação Vento Pressão Humidade
    00:00 +12°C° 0 mm 3 m/s 745 mmHg 65%
    01:00 +13°C° 0 mm 2 m/s 745 mmHg 66%
    02:00 +12°C° 0 mm 2 m/s 744 mmHg 66%
    03:00 +12°C° 0 mm 2 m/s 744 mmHg 69%
    04:00 +12°C° 0 mm 2 m/s 744 mmHg 71%
    05:00 +10°C° 0 mm 2 m/s 743 mmHg 74%
    06:00 +13°C° 0 mm 2 m/s 743 mmHg 72%
    07:00 +13°C° 0 mm 3 m/s 743 mmHg 71%
    08:00 +16°C° 0 mm 3 m/s 743 mmHg 69%
    09:00 +18°C° 0 mm 3 m/s 743 mmHg 65%
    10:00 +20°C° 0 mm 3 m/s 742 mmHg 62%
    11:00 +21°C° 0 mm 3 m/s 742 mmHg 58%
    12:00 +22°C° 0.5 mm 3 m/s 742 mmHg 57%
    13:00 +22°C° 0.5 mm 3 m/s 741 mmHg 56%
    14:00 +24°C° 0.5 mm 2 m/s 741 mmHg 55%
    15:00 +23°C° 0.6 mm 2 m/s 741 mmHg 58%
    16:00 +23°C° 0.6 mm 2 m/s 740 mmHg 60%
    17:00 +23°C° 0.6 mm 2 m/s 740 mmHg 62%
    18:00 +20°C° 0.3 mm 2 m/s 740 mmHg 69%
    19:00 +18°C° 0.3 mm 2 m/s 740 mmHg 76%
    20:00 +17°C° 0.3 mm 2 m/s 740 mmHg 83%
    21:00 +16°C° 0.1 mm 2 m/s 740 mmHg 85%
    22:00 +15°C° 0.1 mm 2 m/s 740 mmHg 87%
    23:00 +15°C° 0.1 mm 2 m/s 740 mmHg 89%

    Depois de amanhã, 28 Abril, Domingo

    Tempo Temperatura Precipitação Vento Pressão Humidade
    00:00 +14°C° 0 mm 2 m/s 740 mmHg 90%
    01:00 +14°C° 0 mm 2 m/s 740 mmHg 91%
    02:00 +13°C° 0 mm 1 m/s 740 mmHg 92%
    03:00 +13°C° 0 mm 2 m/s 740 mmHg 92%
    04:00 +13°C° 0 mm 2 m/s 740 mmHg 93%
    05:00 +13°C° 0 mm 2 m/s 741 mmHg 93%
    06:00 +13°C° 0 mm 3 m/s 741 mmHg 86%
    07:00 +14°C° 0 mm 3 m/s 741 mmHg 78%
    08:00 +17°C° 0 mm 3 m/s 742 mmHg 71%
    09:00 +18°C° 0 mm 4 m/s 742 mmHg 67%
    10:00 +19°C° 0 mm 5 m/s 742 mmHg 63%
    11:00 +20°C° 0 mm 6 m/s 743 mmHg 58%
    12:00 +20°C° 0 mm 6 m/s 743 mmHg 58%
    13:00 +20°C° 0 mm 6 m/s 743 mmHg 57%
    14:00 +20°C° 0 mm 6 m/s 744 mmHg 57%
    15:00 +19°C° 0 mm 6 m/s 744 mmHg 58%
    16:00 +19°C° 0 mm 6 m/s 744 mmHg 59%
    17:00 +17°C° 0 mm 6 m/s 744 mmHg 60%
    18:00 +15°C° 0 mm 6 m/s 745 mmHg 60%
    19:00 +13°C° 0 mm 5 m/s 746 mmHg 60%
    20:00 +12°C° 0 mm 5 m/s 746 mmHg 60%
    21:00 +10°C° 0 mm 5 m/s 747 mmHg 57%
    22:00 +8°C° 0 mm 5 m/s 747 mmHg 55%
    23:00 +7°C° 0 mm 5 m/s 748 mmHg 52%

    29 Abril, Segunda-feira

    Tempo Temperatura Precipitação Vento Pressão Humidade
    00:00 +6°C° 0 mm 5 m/s 748 mmHg 53%
    01:00 +6°C° 0 mm 5 m/s 748 mmHg 54%
    02:00 +5°C° 0 mm 4 m/s 748 mmHg 56%
    03:00 +4°C° 0 mm 4 m/s 749 mmHg 58%
    04:00 +3°C° 0 mm 5 m/s 749 mmHg 61%
    05:00 +2°C° 0 mm 5 m/s 749 mmHg 64%
    06:00 +3°C° 0 mm 5 m/s 749 mmHg 62%
    07:00 +5°C° 0 mm 5 m/s 749 mmHg 60%
    08:00 +5°C° 0 mm 6 m/s 750 mmHg 57%
    09:00 +8°C° 0 mm 6 m/s 750 mmHg 53%
    10:00 +9°C° 0 mm 6 m/s 750 mmHg 49%
    11:00 +10°C° 0 mm 6 m/s 750 mmHg 45%
    12:00 +11°C° 0 mm 6 m/s 749 mmHg 45%
    13:00 +11°C° 0 mm 6 m/s 749 mmHg 44%
    14:00 +13°C° 0 mm 5 m/s 749 mmHg 43%
    15:00 +12°C° 0 mm 5 m/s 749 mmHg 44%
    16:00 +12°C° 0 mm 5 m/s 749 mmHg 45%
    17:00 +12°C° 0 mm 5 m/s 748 mmHg 46%
    18:00 +10°C° 0 mm 4 m/s 748 mmHg 51%
    19:00 +8°C° 0 mm 4 m/s 748 mmHg 55%
    20:00 +7°C° 0 mm 3 m/s 749 mmHg 60%
    21:00 +7°C° 0 mm 3 m/s 749 mmHg 60%
    22:00 +5°C° 0 mm 3 m/s 749 mmHg 61%
    23:00 +4°C° 0 mm 3 m/s 749 mmHg 61%

    30 Abril, Terça-feira

    Tempo Temperatura Precipitação Vento Pressão Humidade
    00:00 +4°C° 0 mm 3 m/s 749 mmHg 63%
    01:00 +4°C° 0 mm 2 m/s 749 mmHg 66%
    02:00 +4°C° 0 mm 2 m/s 748 mmHg 68%
    03:00 +3°C° 0 mm 2 m/s 748 mmHg 69%
    04:00 +3°C° 0 mm 2 m/s 748 mmHg 70%
    05:00 +3°C° 0 mm 2 m/s 748 mmHg 72%
    06:00 +4°C° 0 mm 3 m/s 748 mmHg 65%
    07:00 +7°C° 0 mm 3 m/s 748 mmHg 58%
    08:00 +7°C° 0 mm 4 m/s 748 mmHg 51%
    09:00 +10°C° 0 mm 4 m/s 748 mmHg 48%
    10:00 +11°C° 0 mm 4 m/s 747 mmHg 44%
    11:00 +12°C° 0 mm 4 m/s 747 mmHg 41%
    12:00 +12°C° 0 mm 4 m/s 747 mmHg 40%
    13:00 +13°C° 0 mm 4 m/s 746 mmHg 39%
    14:00 +13°C° 0 mm 4 m/s 746 mmHg 38%
    15:00 +13°C° 0 mm 3 m/s 745 mmHg 39%
    16:00 +13°C° 0 mm 3 m/s 745 mmHg 40%
    17:00 +13°C° 0 mm 3 m/s 745 mmHg 41%
    18:00 +12°C° 0 mm 2 m/s 745 mmHg 47%
    19:00 +9°C° 0 mm 2 m/s 745 mmHg 53%
    20:00 +9°C° 0 mm 1 m/s 745 mmHg 59%
    21:00 +8°C° 0 mm 1 m/s 745 mmHg 59%
    22:00 +7°C° 0 mm 1 m/s 745 mmHg 60%
    23:00 +7°C° 0 mm 1 m/s 745 mmHg 61%

    1 Maio, Quarta-feira

    Tempo Temperatura Precipitação Vento Pressão Humidade
    00:00 +7°C° 0 mm 1 m/s 744 mmHg 61%
    01:00 +6°C° 0 mm 1 m/s 744 mmHg 60%
    02:00 +6°C° 0 mm 1 m/s 744 mmHg 60%
    03:00 +6°C° 0 mm 1 m/s 744 mmHg 61%
    04:00 +6°C° 0 mm 1 m/s 744 mmHg 62%
    05:00 +6°C° 0 mm 1 m/s 744 mmHg 62%
    06:00 +8°C° 0 mm 1 m/s 744 mmHg 59%
    07:00 +9°C° 0 mm 1 m/s 744 mmHg 55%
    08:00 +11°C° 0 mm 1 m/s 744 mmHg 52%
    09:00 +12°C° 0 mm 2 m/s 743 mmHg 47%
    10:00 +13°C° 0 mm 2 m/s 743 mmHg 42%
    11:00 +14°C° 0 mm 2 m/s 743 mmHg 37%
    12:00 +14°C° 0 mm 1 m/s 743 mmHg 37%
    13:00 +15°C° 0 mm 1 m/s 743 mmHg 38%
    14:00 +15°C° 0 mm 1 m/s 742 mmHg 39%
    15:00 +14°C° 0 mm 1 m/s 742 mmHg 40%
    16:00 +14°C° 0 mm 1 m/s 742 mmHg 41%
    17:00 +13°C° 0 mm 0 m/s 741 mmHg 43%
    18:00 +13°C° 0.1 mm 1 m/s 741 mmHg 48%
    19:00 +12°C° 0.1 mm 1 m/s 741 mmHg 53%
    20:00 +10°C° 0.1 mm 1 m/s 741 mmHg 58%
    21:00 +10°C° 0 mm 1 m/s 740 mmHg 60%
    22:00 +10°C° 0 mm 1 m/s 740 mmHg 61%
    23:00 +8°C° 0 mm 2 m/s 740 mmHg 63%
    Mostrar mais